Location: Fruitvale
(37.7797°N, 122.2203°W)
Time: 11:19:40
(UTC+00:00)

Daily predictions for brighter satellites

Satellite Brightness Start Highest point End
(mag) Time Altitude Azimuth Time Altitude Azimuth Time Altitude Azimuth
Cosmos 2219 Rocket 2.4 12:07:44 55° NNW 12:07:44 55° NNW 12:12:25 10° NNE
H-2A R/B 2.9 12:03:58 10° NNE 12:07:47 61° ENE 12:07:47 61° ENE
USA 267 4.2 12:05:17 10° NNE 12:10:47 30° NNW 12:11:24 29° NW
Cosmos 2237 Rocket 2.8 12:09:50 15° S 12:14:22 56° ESE 12:19:56 10° NNE
BREEZE-M DEB (TANK) 2.5 12:18:24 71° ESE 12:18:24 71° ESE 12:20:44 10° ESE
Cosmos 1709 Rocket 4.2 12:19:37 47° WNW 12:19:37 47° WNW 12:25:10 10° N
IDEFIX/ARIANE 42P 2.6 12:15:11 10° N 12:19:57 57° NW 12:19:57 57° NW
Cosmos 2184 Rocket 4.3 12:15:32 10° S 12:21:38 66° E 12:27:50 10° NNE
Cosmos 614 Rocket 4.5 12:17:10 11° S 12:22:07 60° ESE 12:27:16 10° NNE
PAYLOAD A 4.0 12:17:39 10° NNE 12:22:30 74° ESE 12:27:31 10° S
Cosmos 1992 Rocket 3.8 12:22:56 64° W 12:23:15 65° WSW 12:28:23 10° S
Cosmos 1025 Rocket 3.3 12:25:21 53° NNW 12:25:21 53° NNW 12:28:44 10° N
COSMOS 2428 3.1 12:26:41 43° NW 12:26:41 43° NW 12:31:48 10° N
Cosmos 1980 3.7 12:26:56 19° SSW 12:31:07 84° ESE 12:36:48 10° NNE
Cosmos 921 Rocket 3.0 12:34:08 10° NNW 12:38:25 79° ENE 12:42:38 10° SSE
Cosmos 2360 Rocket 4.3 12:40:54 11° NNW 12:40:54 11° NNW 12:41:24 10° NNW
ERBS 3.7 12:40:41 28° N 12:40:41 28° N 12:42:49 10° NNE
NOSS 3-4 (A) 3.3 12:38:27 24° SW 12:42:18 81° NW 12:48:35 10° NNE
NOSS 3-4 (C) 3.3 12:38:27 23° SW 12:42:23 82° WNW 12:48:41 10° NNE
USA 234 3.2 12:35:58 10° SE 12:42:29 75° SW 12:47:38 18° NW
Meteor 1-4 Rocket 3.6 12:41:47 10° S 12:45:10 45° E 12:48:31 10° NNE
CZ-4B R/B 2.7 12:46:41 10° NNE 12:50:43 89° WNW 12:54:31 10° SSW
COSMOS 2455 4.3 12:50:48 18° NW 12:50:55 18° NW 12:54:57 10° N
NOSS 0 Rocket 4.0 12:49:34 19° SW 12:53:55 56° WNW 13:00:01 10° NNE
Cosmos 2074 Rocket 3.9 12:49:25 10° SSW 12:55:35 63° W 13:01:47 10° N
Milstar 3 4.4 12:50:20 10° SW 12:55:48 25° SSE 13:01:23 10° ESE
Cosmos 676 Rocket 4.4 12:51:23 10° S 12:56:37 66° ESE 13:01:50 10° NNE
BREEZE-M DEB (TANK) 4.2 12:50:52 10° SW 13:02:20 46° SSE 13:05:38 10° ENE
GP-B 4.0 12:58:19 10° SSE 13:02:36 51° E 13:06:54 10° N
PSLV R/B 3.8 13:01:01 10° NNE 13:04:44 76° ESE 13:08:24 10° S
SL-16 R/B 2.9 13:00:50 10° S 13:06:19 55° ESE 13:11:51 10° NNE
Cosmos 1190 Rocket 4.1 13:01:40 10° SSW 13:06:53 58° WNW 13:12:07 10° N
ATLAS 3B R/B 3.1 13:00:25 10° NNW 13:07:07 66° NE 13:13:58 10° SE
Cosmos 1953 2.3 13:03:27 10° N 13:07:30 87° E 13:11:30 10° S
Cosmos 407 Rocket 3.7 13:04:33 10° SW 13:09:30 47° WNW 13:14:27 10° N
Cosmos 389 Rocket 2.6 13:07:15 10° SSW 13:10:32 44° WNW 13:13:49 10° N
Helios 1A Rocket 4.1 13:09:35 10° NNE 13:13:36 46° E 13:17:36 10° S
Cosmos 1758 3.7 13:10:54 10° NNW 13:14:39 39° W 13:18:24 10° SSW
Cosmos 1606 Rocket 3.4 13:13:43 10° N 13:18:03 86° W 13:22:22 10° S
Cosmos 2333 Rocket 3.7 13:18:51 16° WNW 13:20:14 17° NW 13:23:50 10° NNW
CENTAUR R/B 3.3 13:12:14 10° NNW 13:20:30 88° ENE 13:29:16 10° SSE
Cosmos 2278 Rocket 2.3 13:15:46 10° NNW 13:21:18 55° WSW 13:26:48 10° S
ATLAS 2AS CENTAUR R/B 3.6 13:16:51 14° WSW 13:23:07 38° NW 13:30:31 10° NNE
COBE Rocket 4.0 13:19:27 10° SSE 13:24:25 85° ENE 13:29:33 10° N
IUS-9 SRM-1 4.3 13:22:28 10° SSW 13:24:27 16° SSE 13:28:10 10° ESE
Okean 1-7 Rocket 3.5 13:21:03 10° S 13:25:28 81° W 13:29:58 10° N
CZ-2C R/B 3.2 13:22:34 10° N 13:27:10 32° WNW 13:31:42 10° SW
RESURS DK-1 2.3 13:24:19 10° SSW 13:28:27 86° WNW 13:32:36 10° NNE
USA 238 DEB 4.5 13:24:18 10° NW 13:30:41 34° WSW 13:37:11 10° S
USA 238 4.5 13:24:24 10° NW 13:30:48 34° WSW 13:37:18 10° S
Meteor PRIRODA 4.2 13:28:55 10° N 13:32:23 37° WNW 13:35:49 10° SW
Meteor 1-31 Rocket 3.9 13:30:46 10° NNW 13:33:48 23° WNW 13:36:49 10° WSW
SJ-12 3.8 13:30:43 10° N 13:34:49 79° WNW 13:38:54 10° SSW
ALOS 2.6 13:30:19 10° NNE 13:34:59 72° E 13:39:38 10° S
COSMO-SKYMED 1 2.5 13:35:34 10° S 13:39:52 70° WSW 13:44:13 10° NNW
Cosmos 1707 4.0 13:38:10 10° SW 13:41:08 21° WNW 13:44:07 10° NNW
USA 116 3.8 13:37:43 10° SSE 13:41:47 77° ENE 13:45:24 10° N
Cosmos 1470 4.1 13:39:44 10° NW 13:42:25 18° W 13:45:06 10° SW
H-2A R/B 4.4 13:42:14 10° NW 13:43:05 11° WNW 13:43:57 10° WNW
Cosmos 1356 3.3 13:39:41 10° NNW 13:43:08 69° W 13:46:33 10° S
Cosmos 1954 Rocket 4.3 13:40:36 10° SW 13:45:37 46° WNW 13:50:39 10° N
OE (NEXTSAT) 4.3 13:43:28 10° WNW 13:47:00 83° SSW 13:50:30 10° ESE
BREEZE-M DEB (TANK) 3.2 13:42:25 10° WSW 13:48:22 54° NNW 13:51:11 10° NE
Milstar 3 Cent rocket 3.7 13:45:24 10° SW 13:49:20 23° S 13:53:03 10° ESE
Cosmos 1484 Rocket 3.4 13:47:39 10° N 13:51:04 33° WNW 13:54:32 10° SW
Cosmos 44 3.6 13:49:16 10° NW 13:53:16 37° WSW 13:57:14 10° S
Cosmos 44 Rocket 4.5 13:48:55 10° NNW 13:53:25 42° NE 13:57:51 10° SE
Cosmos 2218 Rocket 4.4 13:47:40 10° S 13:54:02 76° E 14:00:24 10° N
